Regional Weather Roundup
Issued by NWS

Home | Current Version | Previous Version | Graphics & Text | Print | Product List | Glossary On
Versions: 1 2 3 4 5 6 7 8 9 10 11 12 13 14 15 16 17 18 19 20 21 22 23 24 25 26 27 28 29 30 31 32 33 34 35 36 37 38 39 40 41 42 43 44 45 46 47 48 49 50
000
ASUS43 KLMK 200510
RWRKY
KENTUCKY REGIONAL WEATHER ROUNDUP
NATIONAL WEATHER SERVICE LOUISVILLE KY
100 AM EDT WED AUG 20 2014

NOTE "FAIR" INDICATES FEW OR NO CLOUDS BELOW 12,000 FEET
WITH NO SIGNIFICANT WEATHER AND/OR OBSTRUCTIONS TO VISIBILITY.

KYZ001>023-026-027-061>063-070>075-200600-
WESTERN AND SOUTH CENTRAL KENTUCKY

CITY           SKY/WX    TMP DP  RH WIND       PRES   REMARKS
PADUCAH        CLEAR     78  73  84 SW3       29.84F
HENDERSON      CLEAR     72  66  83 SW3       29.84S
OWENSBORO      CLEAR     75  72  91 S3        29.87R
HOPKINSVILLE   CLEAR     76  75  98 SW6       29.88R
BOWLING GREEN  PTCLDY    80  72  76 SW6       29.90R
GLASGOW        MOCLDY    74  74  99 CALM      29.92R
$$

KYZ024-025-028>034-038-045-046-053-200600-
NORTH CENTRAL KENTUCKY

CITY           SKY/WX    TMP DP  RH WIND       PRES   REMARKS
LOUISVILLE/SDF CLOUDY    80  71  74 SW13      29.85R
LOUISVILLE/LOU CLOUDY    79  71  76 S5        29.85R
FORT KNOX      CLOUDY    71  66  84 S8        29.87S
$$

KYZ035>037-039>044-047>052-055>060-089>105-200600-
NORTHEAST KENTUCKY

CITY           SKY/WX    TMP DP  RH WIND       PRES   REMARKS
LEXINGTON      CLOUDY    77  69  76 S8        29.89S
COVINGTON      TSTM      75  69  81 S8        29.85S
FRANKFORT      LGT RAIN  77  70  79 S7        29.86F
$$

KYZ054-064>069-076>088-106>120-200600-
SOUTHEAST KENTUCKY

CITY           SKY/WX    TMP DP  RH WIND       PRES   REMARKS
JACKSON        CLEAR     72  68  87 CALM      29.94R
LONDON         PTCLDY    73  69  87 CALM      29.96R
SOMERSET       CLOUDY    72  72 100 CALM      29.95R FOG
MIDDLESBORO    CLEAR     68  67  98 CALM      29.97R FOG
MONTICELLO     MOCLDY    73  72  97 CALM      29.95R
$$



USA.gov is the U.S. government's official web portal to all federal, state and local government web resources and services.